When you browse on this site, cookies collect data to enhance your experience and personalize the content and advertising you see.
Visit our Privacy Policy to learn more. By continuing to use the site, you agree to this use of cookies and data.
  • In United Kingdom
  • List of Countries
  • For 7 days
  • Water Temperature
  • Satellite Maps
  • Weather Map
  • Weather Widgets
  • user-avatar
    Login

    Hourly Weather Santiago de Cuba

    Today, 24 January, Thursday

    Time Temperature Precipitation Wind Pressure Humidity
    00:00 +24°C° 0 mm 2 mps 760 mmHg 90%
    01:00 +23°C° 0 mm 2 mps 759 mmHg 90%
    02:00 +23°C° 0 mm 2 mps 759 mmHg 91%
    03:00 +23°C° 0 mm 1 mps 759 mmHg 92%
    04:00 +23°C° 0 mm 1 mps 759 mmHg 92%
    05:00 +23°C° 0 mm 1 mps 759 mmHg 93%
    06:00 +23°C° 0 mm 1 mps 759 mmHg 93%
    07:00 +23°C° 0 mm 1 mps 759 mmHg 93%
    08:00 +25°C° 0 mm 1 mps 760 mmHg 81%
    09:00 +28°C° 0 mm 2 mps 760 mmHg 69%
    10:00 +30°C° 0 mm 2 mps 760 mmHg 57%
    11:00 +31°C° 0 mm 2 mps 760 mmHg 54%
    12:00 +32°C° 0 mm 2 mps 760 mmHg 50%
    13:00 +34°C° 0 mm 2 mps 760 mmHg 46%
    14:00 +34°C° 0 mm 3 mps 759 mmHg 48%
    15:00 +33°C° 0 mm 3 mps 759 mmHg 49%
    16:00 +33°C° 0 mm 3 mps 759 mmHg 51%
    17:00 +30°C° 0 mm 2 mps 759 mmHg 60%
    18:00 +28°C° 0 mm 2 mps 759 mmHg 69%
    19:00 +26°C° 0 mm 1 mps 759 mmHg 79%
    20:00 +25°C° 0 mm 1 mps 759 mmHg 82%
    21:00 +25°C° 0 mm 1 mps 760 mmHg 84%
    22:00 +22°C° 0 mm 0 mps 760 mmHg 87%
    23:00 +22°C° 0 mm 0 mps 760 mmHg 87%

    Tomorrow, 25 January, Friday

    Time Temperature Precipitation Wind Pressure Humidity
    00:00 +21°C° 0 mm 0 mps 760 mmHg 86%
    01:00 +21°C° 0 mm 0 mps 760 mmHg 86%
    02:00 +21°C° 0 mm 0 mps 759 mmHg 85%
    03:00 +21°C° 0 mm 0 mps 759 mmHg 84%
    04:00 +21°C° 0 mm 0 mps 759 mmHg 83%
    05:00 +23°C° 0 mm 1 mps 759 mmHg 82%
    06:00 +23°C° 0 mm 1 mps 759 mmHg 81%
    07:00 +23°C° 0 mm 1 mps 760 mmHg 80%
    08:00 +24°C° 0 mm 0 mps 760 mmHg 69%
    09:00 +27°C° 0 mm 0 mps 761 mmHg 58%
    10:00 +30°C° 0 mm 0 mps 761 mmHg 47%
    11:00 +33°C° 0 mm 1 mps 761 mmHg 45%
    12:00 +33°C° 0 mm 1 mps 760 mmHg 43%
    13:00 +35°C° 0 mm 2 mps 760 mmHg 40%
    14:00 +34°C° 0 mm 2 mps 759 mmHg 44%
    15:00 +32°C° 0 mm 2 mps 759 mmHg 47%
    16:00 +31°C° 0 mm 2 mps 758 mmHg 50%
    17:00 +30°C° 0 mm 1 mps 759 mmHg 59%
    18:00 +28°C° 0 mm 1 mps 759 mmHg 67%
    19:00 +26°C° 0 mm 1 mps 759 mmHg 76%
    20:00 +25°C° 0 mm 1 mps 759 mmHg 79%
    21:00 +25°C° 0 mm 1 mps 760 mmHg 82%
    22:00 +24°C° 0 mm 1 mps 760 mmHg 85%
    23:00 +24°C° 0 mm 1 mps 760 mmHg 86%

    Day after tomorrow, 26 January, Saturday

    Time Temperature Precipitation Wind Pressure Humidity
    00:00 +24°C° 0 mm 1 mps 760 mmHg 88%
    01:00 +23°C° 0 mm 1 mps 759 mmHg 89%
    02:00 +23°C° 0 mm 1 mps 759 mmHg 90%
    03:00 +23°C° 0 mm 1 mps 759 mmHg 91%
    04:00 +23°C° 0 mm 1 mps 758 mmHg 92%
    05:00 +23°C° 0 mm 1 mps 759 mmHg 92%
    06:00 +23°C° 0 mm 1 mps 759 mmHg 92%
    07:00 +22°C° 0 mm 1 mps 759 mmHg 93%
    08:00 +25°C° 0 mm 1 mps 760 mmHg 80%
    09:00 +28°C° 0 mm 1 mps 760 mmHg 68%
    10:00 +31°C° 0 mm 1 mps 760 mmHg 55%
    11:00 +32°C° 0 mm 1 mps 760 mmHg 51%
    12:00 +34°C° 0 mm 2 mps 759 mmHg 46%
    13:00 +35°C° 0 mm 2 mps 758 mmHg 42%
    14:00 +34°C° 0 mm 2 mps 758 mmHg 46%
    15:00 +32°C° 0 mm 2 mps 757 mmHg 50%
    16:00 +31°C° 0 mm 2 mps 757 mmHg 55%
    17:00 +29°C° 0.1 mm 1 mps 757 mmHg 64%
    18:00 +27°C° 0.1 mm 1 mps 757 mmHg 74%
    19:00 +25°C° 0.1 mm 1 mps 758 mmHg 83%
    20:00 +25°C° 0 mm 1 mps 758 mmHg 85%
    21:00 +22°C° 0 mm 0 mps 758 mmHg 88%
    22:00 +22°C° 0 mm 0 mps 759 mmHg 90%
    23:00 +22°C° 0 mm 0 mps 758 mmHg 91%

    27 January, Sunday

    Time Temperature Precipitation Wind Pressure Humidity
    00:00 +21°C° 0 mm 0 mps 758 mmHg 92%
    01:00 +21°C° 0 mm 0 mps 758 mmHg 93%
    02:00 +21°C° 0 mm 0 mps 758 mmHg 94%
    03:00 +21°C° 0 mm 0 mps 757 mmHg 94%
    04:00 +23°C° 0 mm 1 mps 757 mmHg 95%
    05:00 +23°C° 0 mm 1 mps 757 mmHg 95%
    06:00 +23°C° 0 mm 1 mps 758 mmHg 95%
    07:00 +23°C° 0 mm 1 mps 758 mmHg 96%
    08:00 +25°C° 0 mm 1 mps 758 mmHg 84%
    09:00 +27°C° 0 mm 1 mps 759 mmHg 72%
    10:00 +30°C° 0 mm 1 mps 759 mmHg 60%
    11:00 +31°C° 0 mm 2 mps 758 mmHg 54%
    12:00 +32°C° 0 mm 2 mps 758 mmHg 48%
    13:00 +34°C° 0 mm 3 mps 757 mmHg 42%
    14:00 +33°C° 0 mm 3 mps 757 mmHg 46%
    15:00 +31°C° 0 mm 3 mps 756 mmHg 49%
    16:00 +31°C° 0 mm 3 mps 756 mmHg 53%
    17:00 +29°C° 0 mm 2 mps 756 mmHg 64%
    18:00 +27°C° 0 mm 2 mps 756 mmHg 76%
    19:00 +25°C° 0 mm 1 mps 756 mmHg 87%
    20:00 +24°C° 0 mm 1 mps 757 mmHg 89%
    21:00 +22°C° 0 mm 0 mps 757 mmHg 91%
    22:00 +22°C° 0 mm 0 mps 757 mmHg 93%
    23:00 +21°C° 0 mm 0 mps 757 mmHg 93%

    28 January, Monday

    Time Temperature Precipitation Wind Pressure Humidity
    00:00 +21°C° 0 mm 0 mps 757 mmHg 94%
    01:00 +21°C° 0 mm 0 mps 757 mmHg 94%
    02:00 +21°C° 0 mm 0 mps 756 mmHg 95%
    03:00 +20°C° 0 mm 0 mps 756 mmHg 95%
    04:00 +20°C° 0 mm 0 mps 756 mmHg 95%
    05:00 +22°C° 0 mm 1 mps 756 mmHg 95%
    06:00 +22°C° 0 mm 1 mps 757 mmHg 95%
    07:00 +22°C° 0 mm 1 mps 757 mmHg 95%
    08:00 +25°C° 0 mm 1 mps 757 mmHg 82%
    09:00 +27°C° 0 mm 1 mps 758 mmHg 69%
    10:00 +30°C° 0 mm 2 mps 758 mmHg 56%
    11:00 +31°C° 0 mm 2 mps 758 mmHg 54%
    12:00 +33°C° 0 mm 3 mps 757 mmHg 51%
    13:00 +33°C° 0 mm 3 mps 757 mmHg 48%
    14:00 +33°C° 0 mm 3 mps 756 mmHg 51%
    15:00 +31°C° 0 mm 3 mps 756 mmHg 54%
    16:00 +30°C° 0 mm 3 mps 755 mmHg 57%
    17:00 +29°C° 0 mm 2 mps 756 mmHg 66%
    18:00 +27°C° 0 mm 2 mps 756 mmHg 75%
    19:00 +25°C° 0 mm 1 mps 756 mmHg 84%
    20:00 +25°C° 0 mm 1 mps 757 mmHg 86%
    21:00 +25°C° 0 mm 1 mps 757 mmHg 88%
    22:00 +24°C° 0 mm 1 mps 757 mmHg 91%
    23:00 +24°C° 0 mm 1 mps 757 mmHg 91%

    29 January, Tuesday

    Time Temperature Precipitation Wind Pressure Humidity
    00:00 +24°C° 0 mm 1 mps 757 mmHg 92%
    01:00 +24°C° 0 mm 1 mps 756 mmHg 93%
    02:00 +24°C° 0 mm 1 mps 756 mmHg 93%
    03:00 +24°C° 0 mm 1 mps 756 mmHg 93%
    04:00 +24°C° 0 mm 1 mps 756 mmHg 93%
    05:00 +24°C° 0 mm 1 mps 756 mmHg 94%
    06:00 +24°C° 0 mm 1 mps 757 mmHg 94%
    07:00 +22°C° 0 mm 0 mps 757 mmHg 94%
    08:00 +26°C° 0 mm 1 mps 757 mmHg 83%
    09:00 +28°C° 0 mm 1 mps 758 mmHg 72%
    10:00 +31°C° 0 mm 2 mps 758 mmHg 61%
    11:00 +31°C° 0 mm 2 mps 757 mmHg 57%
    12:00 +32°C° 0 mm 2 mps 757 mmHg 54%
    13:00 +34°C° 0 mm 3 mps 756 mmHg 50%
    14:00 +33°C° 0 mm 3 mps 756 mmHg 52%
    15:00 +32°C° 0 mm 2 mps 756 mmHg 54%
    16:00 +31°C° 0 mm 2 mps 755 mmHg 56%
    17:00 +29°C° 0 mm 2 mps 756 mmHg 65%
    18:00 +28°C° 0 mm 2 mps 756 mmHg 74%
    19:00 +26°C° 0 mm 1 mps 757 mmHg 83%
    20:00 +25°C° 0 mm 1 mps 757 mmHg 84%
    21:00 +25°C° 0 mm 1 mps 757 mmHg 86%
    22:00 +25°C° 0 mm 1 mps 758 mmHg 87%
    23:00 +25°C° 0 mm 1 mps 758 mmHg 87%
    Show more